Lexington Weather

Lexington, Massachusetts, USA

46°F
10/22/2019 2:02am 
  • Lexington Conditions: Few Clouds
  • Temperature: 46.2°F / 7.9°CWarmer 0.7°F than last hour.
  • Dew Point: 44.6°FIncreased 1.6°Fsince last hour.
  • Relative Humidity: 94%Increased 3.0% since last hour.
  • Wind: Calm, 10-min avg: Calm, gust: None
  • Barometer: 30.12 in Steady
  • Visibility: 10 miles
  • Rain Today: 0.00 in
  •   

Regional Weather Roundup
for Boston, MA

        
000
ASUS41 KBOX 192110
RWRBOX

REGIONAL WEATHER ROUNDUP
NATIONAL WEATHER SERVICE BOSTON/NORTON MA
500 PM EDT SAT OCT 19 2019

NOTE:  "FAIR" INDICATES FEW OR NO CLOUDS BELOW 12,000 FEET WITH NO 
SIGNIFICANT WEATHER AND/OR OBSTRUCTIONS TO VISIBILITY.

MAZALL-192200-
EASTERN MASSACHUSETTS
  
CITY           SKY/WX    TMP DP  RH WIND       PRES   REMARKS
BOSTON         FAIR      61  33  35 W7        29.98S                  
BEVERLY        FAIR      59  35  40 W6        29.96F                  
LAWRENCE       FAIR      58  33  39 NW6       29.98F                  
BEDFORD        FAIR      62  34  35 W7        29.96S                  
BLUE HILL      NOT AVBL                                               
NORWOOD        FAIR      61  35  37 W3        29.98S                  
MARSHFIELD     FAIR      54  41  62 SE6       29.99R                  
PLYMOUTH       FAIR      57  37  47 SW8       29.99R                  
TAUNTON        FAIR      60  35  39 VRB3      29.98S                  
NEW BEDFORD    FAIR      57  37  47 SW6       29.99S                  
$$

MAZALL-192200-
CAPE COD AND THE ISLANDS
  
CITY           SKY/WX    TMP DP  RH WIND       PRES   REMARKS
FALMOUTH       CLEAR     54  41  62 W12       30.00S                  
HYANNIS        FAIR      57  39  51 VRB6      29.98S                  
CHATHAM        NOT AVBL                                               
PROVINCETOWN   FAIR      52  39  61 SW5         N/A                   
NANTUCKET      FAIR      53  41  63 W13       30.01S                  
MARTHAS VNYRD  FAIR      54  40  59 W8        30.00S                  
$$
 
MAZALL-192200-
CENTRAL AND WESTERN MASSACHUSETTS
  
CITY           SKY/WX    TMP DP  RH WIND       PRES   REMARKS
WORCESTER      FAIR      54  34  46 W8        29.98F                  
FITCHBURG      FAIR      59  31  34 W9        29.99S                  
ORANGE         FAIR      59  33  37 CALM      29.99S                  
SPRINGFIELD    MOSUNNY   60  35  38 SE3       29.97F                  
WESTFIELD      FAIR      60  30  32 W9        29.98S                  
NORTH ADAMS    FAIR      54  34  46 VRB3      30.01R                  
PITTSFIELD     FAIR      54  33  45 NW7       29.99S                  
$$
 
RIZALL-192200-
RHODE ISLAND
  
CITY           SKY/WX    TMP DP  RH WIND       PRES   REMARKS
PROVIDENCE     FAIR      59  36  42 W3        29.99F                  
NEWPORT        FAIR      56  43  61 SW8       29.99S                  
BLOCK ISLAND   FAIR      55  40  56 SW12      30.02S                  
SMITHFIELD     FAIR     N/A N/A N/A W3        29.99S                  
WESTERLY       FAIR      59  45  59 SW6       30.01S                  
$$
 
CTZALL-192200-
CONNECTICUT
  
CITY           SKY/WX    TMP DP  RH WIND       PRES   REMARKS
BRADLEY INTL   FAIR      64  32  30 W6        29.98S                  
HARTFORD       FAIR      62  33  33 NW6       29.99S                  
BRIDGEPORT     FAIR      59  40  49 SW10      30.01F                  
DANBURY        FAIR      59  33  37 W5        30.02S                  
GROTON         FAIR      57  43  59 W10G20    30.00S                  
NEW HAVEN      FAIR      60  42  51 SW8       30.01S                  
CHESTER        FAIR      57  43  58 SW9       30.00S                  
MERIDEN        FAIR      60  34  37 W6        30.00S                  
WILLIMANTIC    FAIR      59  36  42 CALM      30.00F                  
OXFORD         FAIR      58  36  43 SW7       30.01S                  
$$

MEZ002-015-021-024-NHZ003-005-008-011-012-014-VTZ005-008-192200-
NORTHERN NEW ENGLAND
  
CITY           SKY/WX    TMP DP  RH WIND       PRES   REMARKS
PORTLAND ME    FAIR      57  34  41 NW8       29.95S                  
BANGOR ME      FAIR      55  35  47 NW14      29.92R                  
CONCORD NH     FAIR      58  31  35 W8        29.97S                  
MANCHESTER NH  FAIR      60  31  33 NW7       29.96S                  
NASHUA NH      FAIR      60  33  36 W5        29.98R                  
PORTSMOUTH NH  CLEAR     58  29  33 NW6       29.95S                  
JAFFREY NH     FAIR      56  30  37 W6        29.99R                  
KEENE NH       FAIR      58  33  39 N7        29.99S                  
BURLINGTON VT  FAIR      53  33  46 N3        30.02F                  
MT. WASHINGTON PTCLDY    32   5  32 NW37        N/A  WCI  16          
$$

NYZ052-076-192200-
EASTERN NEW YORK
  
CITY           SKY/WX    TMP DP  RH WIND       PRES   REMARKS
ALBANY         FAIR      59  35  40 CALM      30.02F                  
NEW YORK CITY  PTSUNNY   62  35  36 S10       30.02S                  
$$
 
ANZALL-192200-
MARINE OBSERVATIONS
  
STATION/POSITION TIME  TEMP    WIND        PRES    VSBY  WAVE
                       AIR SEA DIR/SP/G                  HT/PER
                 (UTC) (F)     (DEG/KT/KT) (MB)    (MI)  (FT/S)
BOSTON BUOY      2050   57 56  230/  8/ 10 1014.3R         1/13
BUZZARDS BAY     2000   53     240/ 13/ 15 1016.5F
NANTUCKET SOUND  2040      56                N/A           1/ 3
MASS BAY-STELLWA 2004   54 56  210/ 10/ 12 1014.2R  1 7/8  1/ 2
ISLE OF SHOALS   2000   56     290/  6/  7 1014.3R
S OF BLOCK IS    2100      60                N/A           2/ 3
$$

......................KEY.........................
  SKY/WX - SKY CONDITION/PRESENT WEATHER
  TMP    - TEMPERATURE IN FAHRENHEIT
  DWPT   - DEWPOINT IN FAHRENHEIT
  RH     - RELATIVE HUMIDITY IN PERCENT
  WIND   - DIRECTION AND SPEED IN MPH
  PRES   - MEAN SEA LEVEL PRESSURE IN INCHES OF HG
  WCI    - WIND CHILL INDEX
  VSB    - VISIBILITY IN MILES
  HX     - HEAT INDEX
  TC     - TEMPERATURE IN CELSIUS
  VRB    - VARIABLE WIND DIRECTION
  N/A    - NOT AVAILABLE
  
      

Other recent Regional Weather Roundups

Tue Oct 22, 1:10am

Tue Oct 22, 1:00am

Tue Oct 22, 12:10am

Tue Oct 22, 12:00am

Mon Oct 21, 11:10pm

Mon Oct 21, 11:00pm

Mon Oct 21, 10:10pm

Mon Oct 21, 10:01pm

Mon Oct 21, 9:10pm

Mon Oct 21, 9:00pm

Mon Oct 21, 8:10pm

Mon Oct 21, 8:00pm

Mon Oct 21, 7:10pm

Mon Oct 21, 7:01pm

Mon Oct 21, 6:10pm

Mon Oct 21, 6:01pm

Mon Oct 21, 5:10pm

Mon Oct 21, 5:01pm

Mon Oct 21, 4:10pm

Mon Oct 21, 4:00pm

Mon Oct 21, 3:10pm

Mon Oct 21, 3:01pm

Mon Oct 21, 2:10pm

Mon Oct 21, 2:00pm

Mon Oct 21, 1:10pm

Mon Oct 21, 1:01pm

Mon Oct 21, 12:10pm

Mon Oct 21, 12:00pm

Mon Oct 21, 11:10am

Mon Oct 21, 11:00am

Mon Oct 21, 10:10am

Mon Oct 21, 10:00am

Mon Oct 21, 9:10am

Mon Oct 21, 9:00am

Mon Oct 21, 7:10am

Mon Oct 21, 7:00am

Mon Oct 21, 6:10am

Mon Oct 21, 6:00am

Mon Oct 21, 5:10am

Mon Oct 21, 5:00am

Mon Oct 21, 4:10am

Mon Oct 21, 4:00am

Mon Oct 21, 3:10am

Mon Oct 21, 3:00am

Mon Oct 21, 2:10am

Mon Oct 21, 2:01am

Mon Oct 21, 1:10am

Mon Oct 21, 1:00am

Mon Oct 21, 12:10am

Mon Oct 21, 12:00am

Sun Oct 20, 11:10pm

Sun Oct 20, 11:00pm

Sun Oct 20, 10:10pm

Sun Oct 20, 10:00pm

Sun Oct 20, 9:10pm

Sun Oct 20, 9:01pm

Sun Oct 20, 8:10pm

Sun Oct 20, 8:00pm

Sun Oct 20, 7:10pm

Sun Oct 20, 7:01pm

Sun Oct 20, 6:10pm

Sun Oct 20, 6:00pm

Sun Oct 20, 5:10pm

Sun Oct 20, 5:00pm

Sun Oct 20, 4:10pm

Sun Oct 20, 4:00pm

Sun Oct 20, 3:10pm

Sun Oct 20, 3:00pm

Sun Oct 20, 2:10pm

Sun Oct 20, 2:01pm

Sun Oct 20, 1:10pm

Sun Oct 20, 1:01pm

Sun Oct 20, 12:10pm

Sun Oct 20, 12:00pm

Sun Oct 20, 11:10am

Sun Oct 20, 11:00am

Sun Oct 20, 10:10am

Sun Oct 20, 10:00am

Sun Oct 20, 9:10am

Sun Oct 20, 9:00am

Sun Oct 20, 8:10am

Sun Oct 20, 8:00am

Sun Oct 20, 7:10am

Sun Oct 20, 7:00am

Sun Oct 20, 6:10am

Sun Oct 20, 6:00am

Sun Oct 20, 5:10am

Sun Oct 20, 5:00am

Sun Oct 20, 4:10am

Sun Oct 20, 4:00am

Sun Oct 20, 3:10am

Sun Oct 20, 3:00am

Sun Oct 20, 2:10am

Sun Oct 20, 2:00am

Sun Oct 20, 1:10am

Sun Oct 20, 1:00am

Sun Oct 20, 12:10am

Sun Oct 20, 12:00am

Sat Oct 19, 11:10pm

Sat Oct 19, 11:00pm

Sat Oct 19, 10:10pm

Sat Oct 19, 10:00pm

Sat Oct 19, 9:10pm

Sat Oct 19, 9:00pm

Sat Oct 19, 8:10pm

Sat Oct 19, 8:00pm

Sat Oct 19, 7:10pm

Sat Oct 19, 7:00pm

Sat Oct 19, 6:10pm

Sat Oct 19, 6:00pm

Sat Oct 19, 5:00pm

Sat Oct 19, 4:10pm

Sat Oct 19, 4:00pm

Sat Oct 19, 3:10pm

Sat Oct 19, 3:01pm

Sat Oct 19, 2:10pm

Sat Oct 19, 2:00pm

Sat Oct 19, 1:10pm

Sat Oct 19, 1:01pm

Sat Oct 19, 12:10pm

Sat Oct 19, 12:00pm

Sat Oct 19, 11:10am

Sat Oct 19, 11:01am

Sat Oct 19, 10:10am

Sat Oct 19, 10:00am

Sat Oct 19, 9:10am

Sat Oct 19, 9:00am

Sat Oct 19, 8:10am

Sat Oct 19, 8:00am

Sat Oct 19, 7:10am

Sat Oct 19, 7:00am

Sat Oct 19, 6:10am

Sat Oct 19, 6:00am

Sat Oct 19, 5:10am

Sat Oct 19, 5:00am

Sat Oct 19, 4:10am

Sat Oct 19, 4:00am

Sat Oct 19, 3:10am

Sat Oct 19, 3:00am

Sat Oct 19, 2:10am

Sat Oct 19, 2:00am

Meta data:

ID: 323cda2c-3c53-4607-803c-791065eaf9ad
Link: https://api.weather.gov/products/323cda2c-3c53-4607-803c-791065eaf9ad